SCP
0 0 0 0 0 0 0 0 0 0 0 0 0 0 0 0 0 0 0 0 0 0 0 0 0 0 0 0 0 0 0 0 0 0 0 0 0 0 0 0 0 0 0
0 0 0 0 0 0 0 0 0 0 0 0 0 0 0 0 0 0 0 0 0 0 0 0 0 0 0 0 0 0 0 0 0 0 0 0 0 0 0 0 0 0 0
0 0 0 0 0 0 0 0 0 0 0 0 0 0 0 0 0 0 0 0 0 0 0 0 0 0 0 0 0 0 0 0 0 0 0 0 0 0 0 0 0 0 0
0 0 0 0 0 0 0 0 0 0 0 0 0 0 0 0 0 0 0 0 0 0 0 0 0 0 0 0 0 0 0 0 0 0 0 0 0 0 0 0 0 0 0
0 0 0 0 0 0 0 0 0 0 0 0 0 0 0 0 0 0 0 0 0 0 0 0 0 0 0 0 0 0 0 0 0 0 0 0 0 0 0 0 0 0 0
0 0 0 0 0 0 0 0 0 0 0 0 0 0 0 0 0 0 0 0 0 0 0 0 0 0 0 0 0 0 0 0 0 0 0 0 0 0 0 0 0 0 0
0 0 0 0 0 0 0 0 0 0 0 0 0 0 0 0 0 0 0 0 0 0 0 0 0 0 0 0 0 0 0 0 0 0 0 0 0 0 0 0 0 0 0
0 0 0 0 0 0 0 0 0 0 0 0 0 0 0 0 0 0 0 0 0 0 0 0 0 0 0 0 0 0 0 0 0 0 0 0 0 0 0 0 0 0 0
0 0 0 0 0 0 0 0 0 0 0 0 0 0 0 0 0 0 0 0 0 0 0 0 0 0 0 0 0 0 0 0 0 0 0 0 0 0 0 0 0 0 0
0 0 0 0 -0 0 0 0 0 0 0 0 0 0 0 0 0 0 0 0 0 0 0 0 0 0 0 0 0 0 0 0 0 0 0 0 0 0 0 0 0 0 0
0 0 0 -0 0 0 -0 0 -0 0 0 0 0 0 0 0 0 0 0 0 0 0 0 0 0 0 0 0 0 0 0 0 0 0 0 0 0 0 0 0 0 0 0
-0 0 -0 -0 -0 0 0 0 0 0 0 0 0 0 0 0 0 0 0 0 0 0 0 0 0 0 0 0 0 0 0 0 0 0 0 0 0 0 0 0 0 0 0
-0 -0 0 0 0 0 0 0 0 0 0 0 0 0 0 0 0 0 0 0 0 0 0 0 0 0 0 0 0 0 0 0 0 0 0 0 0 0 0 0 0 0 0
-0 -0 -0 0 0 0 0 0 0 0 0 0 0 0 0 0 0 0 0 0 0 0 0 0 0 0 0 0 0 0 0 0 0 0 0 0 0 0 0 0 0 0 0
-0 -0 -0 0 -0 0 0 0 0 0 0 0 0 0 0 0 0 0 0 0 0 0 0 0 0 0 0 0 0 0 0 0 0 0 0 0 0 0 0 0 0 0 0
0 0 0 0 -0 -0 0 0 0 0 0 0 0 0 0 0 0 0 0 0 0 0 0 0 0 0 0 0 0 0 0 0 0 0 0 0 0 0 0 0 0 0 0
0 0 0 0 0 0 0 0 0 0 0 0 0 0 0 0 0 0 0 0 0 0 0 0 0 0 0 0 0 0 0 0 0 0 0 0 0 0 0 0 0 0 0
0 0 0 0 0 0 0 0 -0 0 0 0 0 0 0 0 0 0 0 0 0 0 0 0 0 0 0 0 0 0 0 0 0 0 0 0 0 0 0 0 0 0 0
0 0 0 -0 -0 -0 -0 -0 -0 -0 -0 0 0 0 0 0 0 0 0 0 0 0 0 0 0 0 0 0 0 0 0 0 0 0 0 0 0 0 0 0 0 0 0
-0 -0 -0 -0 -0 -0 -0 -0 -0 -0 -0 0 0 0 0 0 0 0 0 0 0 0 0 0 0 0 0 0 0 0 0 0 0 0 0 0 0 0 0 0 0 0 0
-0 -0 -0 -0 -0 -0 -0 -0 -0 -0 -0 -0 0 0 0 0 0 0 0 0 0 0 0 0 0 0 0 0 0 0 0 0 0 0 0 0 0 0 0 0 0 0 0
-0 -0 -0 -0 -0 -0 -0 -0 -0 -0 -0 -0 -0 0 0 0 0 0 0 0 0 0 0 0 0 0 0 0 0 0 0 0 0 0 0 0 0 0 0 0 0 0 0
-0 -0 -0 -0 -0 -0 -0 -0 -0 -0 -0 -0 -0 0 0 0 0 0 0 0 0 0 0 0 0 0 0 0 0 0 0 0 0 0 0 0 0 0 0 0 0 0 0
-0 -0 -0 -0 -0 -0 -0 -0 -0 0 -0 -0 -0 -0 -0 0 0 0 0 0 0 0 0 0 0 0 0 0 0 0 0 0 0 0 0 0 0 0 0 0 0 0 0
-0 -0 -0 -0 -0 -0 0 0 -0 -0 -0 0 0 -0 0 0 0 0 0 0 0 0 0 0 0 0 0 0 0 0 0 0 0 0 0 0 0 0 0 0 0 0 0
-0 -0 -0 -0 -0 0 0 0 0 0 0 0 0 0 0 0 0 0 0 0 0 0 0 0 0 0 0 0 0 0 0 0 0 0 0 0 0 0 0 0 0 0 0
Wind_Speed_500mb
46 41 40 47 53 55 55 61 60 61 61 60 70 73 71 66 63 62 61 60 58 56 56 57 55 54 54 51 46 43 43 43 34 33 39 41 48 44 39 37 27 22 23
55 52 48 51 58 61 64 66 69 68 67 66 67 74 74 76 72 68 66 67 63 60 59 60 61 61 59 57 54 50 49 45 38 42 35 30 38 36 23 19 19 17 26
60 58 58 56 60 67 69 70 74 72 73 71 67 67 69 76 77 79 74 76 73 68 65 63 61 63 64 63 59 56 56 54 48 44 41 19 20 17 28 25 22 30 30
73 71 66 60 69 71 70 68 70 71 72 73 75 77 79 82 85 84 81 78 76 75 74 72 67 64 67 68 63 59 59 58 60 54 56 61 52 25 23 25 23 27 38
60 56 59 66 67 59 67 67 69 70 72 73 82 82 84 85 81 75 75 79 80 78 76 78 77 74 72 70 66 66 65 65 65 64 62 60 59 60 57 55 55 46 41
27 24 22 26 36 40 29 45 56 64 69 72 80 88 89 87 86 82 80 79 78 78 80 80 83 81 80 78 73 70 70 68 67 68 68 70 66 61 55 58 60 57 59
24 22 21 21 22 27 35 46 53 67 75 74 79 89 92 90 89 87 85 82 80 83 84 79 80 84 85 85 81 79 78 77 75 73 73 72 73 66 58 58 64 66 67
27 41 42 40 26 17 27 36 45 61 71 72 77 86 91 94 93 92 91 87 83 82 80 79 75 76 80 84 85 84 83 82 81 80 78 78 75 68 67 66 63 67 66
26 27 34 43 38 36 41 38 35 40 54 61 68 79 88 94 97 94 92 92 89 85 83 81 78 73 72 73 78 83 85 84 81 81 79 78 76 71 66 65 62 61 56
25 33 42 50 45 56 44 40 39 31 45 52 58 67 78 86 92 92 91 91 89 88 87 85 81 76 71 70 73 77 79 80 79 77 75 73 71 68 65 62 64 63 64
22 33 43 50 61 58 54 43 46 50 35 38 50 57 66 74 80 87 89 90 88 86 86 85 84 80 75 71 73 75 77 78 77 76 73 70 65 65 63 61 60 59 60
21 36 38 59 63 62 60 60 52 45 43 34 34 44 53 63 74 81 85 85 86 86 86 87 85 82 78 75 75 76 77 77 76 74 72 67 62 65 64 59 58 55 57
26 39 66 65 66 62 60 60 60 52 46 40 38 38 43 50 63 72 75 79 81 83 85 86 87 84 82 80 77 76 76 76 74 70 69 68 68 69 65 64 59 57 58
44 51 68 72 68 66 61 62 60 57 53 50 44 43 43 47 51 57 66 70 76 79 85 82 82 82 81 78 77 75 76 74 72 68 68 71 70 69 64 71 56 58 57
47 64 66 63 60 60 68 68 66 65 63 59 55 51 48 47 50 55 59 63 66 73 77 79 82 83 82 79 76 74 74 72 68 71 72 73 73 66 67 56 58 60 60
62 57 56 54 49 64 70 72 72 68 67 67 64 57 54 55 54 55 61 64 68 70 74 78 78 78 79 75 71 69 70 70 74 75 72 70 65 61 55 58 57 56 59
40 34 36 51 65 72 75 78 74 70 68 70 67 62 60 61 59 59 61 66 70 70 73 75 76 76 75 73 74 74 73 73 73 71 67 64 60 61 60 60 59 61 57
40 44 56 69 74 78 82 78 80 75 68 72 70 63 61 63 63 65 66 64 68 73 75 76 77 78 78 75 74 68 68 68 65 63 61 62 61 62 59 56 52 46 46
47 58 67 76 79 78 81 86 87 88 76 68 75 67 61 64 63 67 69 68 68 69 71 74 72 72 70 69 69 65 64 64 65 63 63 65 61 58 54 47 42 41 39
67 73 78 81 83 83 86 92 94 92 86 73 69 74 66 62 65 66 68 74 74 73 72 73 72 72 71 70 69 67 67 69 70 68 65 63 59 54 47 44 40 37 36
81 88 92 94 92 95 96 96 99 96 90 86 76 69 73 74 68 65 69 74 81 81 80 78 77 76 75 73 69 69 68 65 65 65 65 61 54 52 48 46 41 36 37
88 93 100 103 102 97 92 98 99 99 96 94 86 74 70 73 74 67 65 73 84 88 89 86 84 83 79 76 74 72 66 63 65 63 59 55 53 50 47 45 43 42 39
95 95 96 104 101 97 91 99 99 99 101 98 94 85 78 73 70 72 68 72 82 93 96 94 92 90 85 82 78 75 70 68 63 56 54 53 50 48 48 48 46 43 37
84 95 106 108 108 100 100 97 99 102 102 102 95 88 85 80 74 72 75 77 83 92 101 101 98 94 90 87 83 80 77 69 62 60 63 59 55 51 50 49 46 42 38
93 91 100 102 102 102 102 103 101 97 98 97 99 92 85 86 82 77 77 82 85 91 99 104 101 101 100 95 88 86 85 79 74 72 67 66 62 57 53 48 46 43 39
93 94 88 88 94 96 99 96 93 87 92 96 96 94 89 86 84 80 79 80 83 89 95 98 98 96 90 86 84 82 78 77 77 73 72 69 65 60 57 54 50 45 42
Wind_Direction_500mb
264 251 233 237 240 243 233 228 234 237 238 229 225 228 229 230 227 231 240 242 242 239 238 240 241 239 240 243 243 245 244 244 242 247 257 265 267 273 278 279 278 274 270
256 262 251 239 236 246 244 229 231 235 240 244 238 236 236 239 243 238 233 240 243 243 241 241 241 242 242 243 243 244 247 248 240 243 260 276 279 280 270 255 275 270 276
253 251 249 240 238 243 246 240 237 234 240 246 246 239 238 240 239 243 243 241 243 244 243 243 244 243 245 246 248 248 246 247 244 236 236 246 249 276 278 268 258 281 273
245 246 249 247 241 245 252 248 243 241 238 242 241 242 239 235 243 244 246 247 245 244 244 245 244 244 245 247 249 250 249 248 248 248 241 243 250 268 284 287 275 272 274
248 252 255 253 255 257 251 253 250 248 245 243 243 242 243 246 249 249 246 245 250 251 247 246 246 245 245 248 249 250 249 250 251 251 255 256 259 253 258 274 276 279 279
259 254 254 258 253 251 253 246 249 251 253 252 244 242 245 244 244 245 246 246 248 253 252 248 247 246 245 247 248 250 250 251 253 255 254 256 255 256 254 261 269 278 284
21 3 338 305 278 276 264 255 254 254 255 252 248 242 244 244 247 248 247 247 247 248 252 251 248 247 245 246 247 250 251 253 253 254 256 257 259 262 264 264 269 275 280
72 66 41 44 26 321 288 279 264 254 255 251 249 246 245 245 247 248 249 250 250 251 253 255 255 253 250 247 248 250 253 254 255 256 256 257 258 259 259 256 260 268 275
73 35 37 22 14 11 12 3 300 275 259 254 248 245 245 244 247 250 249 249 251 251 251 253 255 253 251 249 248 248 251 253 254 256 257 258 261 261 263 262 265 268 268
25 19 16 13 11 3 1 4 3 318 274 264 258 251 246 246 248 250 248 251 251 248 249 250 251 253 250 249 247 247 249 250 253 254 256 258 258 259 261 261 262 263 265
27 12 3 359 359 350 346 341 342 350 333 273 256 253 249 249 251 250 252 250 249 250 248 249 251 251 250 248 247 247 248 249 251 255 258 258 256 257 257 258 261 261 264
13 357 351 338 337 342 341 337 335 335 339 325 281 265 261 254 250 252 253 254 248 244 246 248 250 251 250 249 246 245 246 248 251 253 248 257 257 255 259 260 259 256 259
351 341 342 340 338 340 337 336 337 335 329 321 316 294 284 268 258 257 255 253 250 246 244 244 248 248 247 246 244 244 246 250 253 253 254 255 255 255 260 261 259 257 257
337 332 332 334 337 338 342 339 336 337 333 321 308 309 301 285 277 268 261 256 251 247 243 238 238 242 244 243 245 244 250 250 253 252 251 252 253 257 257 260 251 257 260
326 320 323 331 335 342 340 336 333 330 330 324 317 307 304 299 284 276 268 260 249 243 242 241 239 242 243 244 245 246 248 249 250 250 251 252 253 256 260 255 259 260 260
314 317 323 334 347 340 336 331 332 330 325 322 321 317 310 302 294 280 268 257 251 248 245 244 244 244 247 248 249 246 246 245 246 248 249 254 252 250 249 253 254 255 256
330 355 359 347 344 341 337 338 330 329 324 319 316 314 313 307 297 288 274 259 253 250 247 246 246 247 248 247 247 243 241 242 244 246 244 246 246 247 246 249 251 252 248
1 351 341 337 335 335 334 331 326 323 324 322 313 308 308 305 302 291 282 271 257 249 247 245 244 245 246 244 244 241 240 242 242 243 241 240 242 247 246 247 247 243 241
341 337 335 334 334 335 330 326 326 326 320 320 323 311 301 300 295 289 284 277 265 255 249 246 244 243 244 243 242 239 237 236 236 236 236 239 241 240 242 238 236 235 233
334 331 329 329 329 330 327 321 322 325 328 320 318 318 303 292 294 290 280 275 267 260 252 248 246 246 246 246 245 242 239 238 238 237 236 234 235 235 229 228 229 231 230
322 324 322 323 322 324 323 316 315 317 321 319 313 312 313 298 286 287 282 269 265 259 255 251 249 247 245 243 241 241 242 239 238 234 233 231 226 224 223 220 222 230 230
319 319 318 317 319 320 320 315 313 312 311 313 311 307 307 307 290 283 279 274 263 257 253 250 247 246 244 241 239 237 235 234 234 235 229 224 218 220 220 216 219 221 222
316 317 315 314 314 316 316 312 314 312 307 305 307 306 302 301 297 285 278 272 262 255 252 249 247 245 242 238 235 232 229 229 227 223 221 218 217 214 212 212 215 217 214
315 312 311 310 309 310 309 309 310 310 306 302 301 302 300 298 296 287 278 269 263 255 252 250 247 247 241 236 232 228 225 223 217 213 212 213 215 213 212 211 213 213 210
311 312 309 309 306 306 304 304 307 308 304 300 299 297 296 294 291 289 282 273 266 260 254 252 251 246 245 241 236 230 225 220 213 210 208 209 208 208 207 205 205 204 203
314 314 313 306 305 304 303 302 303 304 300 298 296 295 296 292 287 285 284 278 270 260 255 253 250 251 250 247 243 234 228 222 214 208 209 209 209 206 205 202 200 200 200
Wind_Speed_850mb
46 41 40 47 53 55 55 61 60 61 61 60 70 73 71 66 63 62 61 60 58 56 56 57 55 54 54 51 46 43 43 43 34 33 39 41 48 44 39 37 27 22 23
55 52 48 51 58 61 64 66 69 68 67 66 67 74 74 76 72 68 66 67 63 60 59 60 61 61 59 57 54 50 49 45 38 42 35 30 38 36 23 19 19 17 26
60 58 58 56 60 67 69 70 74 72 73 71 67 67 69 76 77 79 74 76 73 68 65 63 61 63 64 63 59 56 56 54 48 44 41 19 20 17 28 25 22 30 30
73 71 66 60 69 71 70 68 70 71 72 73 75 77 79 82 85 84 81 78 76 75 74 72 67 64 67 68 63 59 59 58 60 54 56 61 52 25 23 25 23 27 38
60 56 59 66 67 59 67 67 69 70 72 73 82 82 84 85 81 75 75 79 80 78 76 78 77 74 72 70 66 66 65 65 65 64 62 60 59 60 57 55 55 46 41
27 24 22 26 36 40 29 45 56 64 69 72 80 88 89 87 86 82 80 79 78 78 80 80 83 81 80 78 73 70 70 68 67 68 68 70 66 61 55 58 60 57 59
24 22 21 21 22 27 35 46 53 67 75 74 79 89 92 90 89 87 85 82 80 83 84 79 80 84 85 85 81 79 78 77 75 73 73 72 73 66 58 58 64 66 67
27 41 42 40 26 17 27 36 45 61 71 72 77 86 91 94 93 92 91 87 83 82 80 79 75 76 80 84 85 84 83 82 81 80 78 78 75 68 67 66 63 67 66
26 27 34 43 38 36 41 38 35 40 54 61 68 79 88 94 97 94 92 92 89 85 83 81 78 73 72 73 78 83 85 84 81 81 79 78 76 71 66 65 62 61 56
25 33 42 50 45 56 44 40 39 31 45 52 58 67 78 86 92 92 91 91 89 88 87 85 81 76 71 70 73 77 79 80 79 77 75 73 71 68 65 62 64 63 64
22 33 43 50 61 58 54 43 46 50 35 38 50 57 66 74 80 87 89 90 88 86 86 85 84 80 75 71 73 75 77 78 77 76 73 70 65 65 63 61 60 59 60
21 36 38 59 63 62 60 60 52 45 43 34 34 44 53 63 74 81 85 85 86 86 86 87 85 82 78 75 75 76 77 77 76 74 72 67 62 65 64 59 58 55 57
26 39 66 65 66 62 60 60 60 52 46 40 38 38 43 50 63 72 75 79 81 83 85 86 87 84 82 80 77 76 76 76 74 70 69 68 68 69 65 64 59 57 58
44 51 68 72 68 66 61 62 60 57 53 50 44 43 43 47 51 57 66 70 76 79 85 82 82 82 81 78 77 75 76 74 72 68 68 71 70 69 64 71 56 58 57
47 64 66 63 60 60 68 68 66 65 63 59 55 51 48 47 50 55 59 63 66 73 77 79 82 83 82 79 76 74 74 72 68 71 72 73 73 66 67 56 58 60 60
62 57 56 54 49 64 70 72 72 68 67 67 64 57 54 55 54 55 61 64 68 70 74 78 78 78 79 75 71 69 70 70 74 75 72 70 65 61 55 58 57 56 59
40 34 36 51 65 72 75 78 74 70 68 70 67 62 60 61 59 59 61 66 70 70 73 75 76 76 75 73 74 74 73 73 73 71 67 64 60 61 60 60 59 61 57
40 44 56 69 74 78 82 78 80 75 68 72 70 63 61 63 63 65 66 64 68 73 75 76 77 78 78 75 74 68 68 68 65 63 61 62 61 62 59 56 52 46 46
47 58 67 76 79 78 81 86 87 88 76 68 75 67 61 64 63 67 69 68 68 69 71 74 72 72 70 69 69 65 64 64 65 63 63 65 61 58 54 47 42 41 39
67 73 78 81 83 83 86 92 94 92 86 73 69 74 66 62 65 66 68 74 74 73 72 73 72 72 71 70 69 67 67 69 70 68 65 63 59 54 47 44 40 37 36
81 88 92 94 92 95 96 96 99 96 90 86 76 69 73 74 68 65 69 74 81 81 80 78 77 76 75 73 69 69 68 65 65 65 65 61 54 52 48 46 41 36 37
88 93 100 103 102 97 92 98 99 99 96 94 86 74 70 73 74 67 65 73 84 88 89 86 84 83 79 76 74 72 66 63 65 63 59 55 53 50 47 45 43 42 39
95 95 96 104 101 97 91 99 99 99 101 98 94 85 78 73 70 72 68 72 82 93 96 94 92 90 85 82 78 75 70 68 63 56 54 53 50 48 48 48 46 43 37
84 95 106 108 108 100 100 97 99 102 102 102 95 88 85 80 74 72 75 77 83 92 101 101 98 94 90 87 83 80 77 69 62 60 63 59 55 51 50 49 46 42 38
93 91 100 102 102 102 102 103 101 97 98 97 99 92 85 86 82 77 77 82 85 91 99 104 101 101 100 95 88 86 85 79 74 72 67 66 62 57 53 48 46 43 39
93 94 88 88 94 96 99 96 93 87 92 96 96 94 89 86 84 80 79 80 83 89 95 98 98 96 90 86 84 82 78 77 77 73 72 69 65 60 57 54 50 45 42
Wind_Direction_850mb
264 251 233 237 240 243 233 228 234 237 238 229 225 228 229 230 227 231 240 242 242 239 238 240 241 239 240 243 243 245 244 244 242 247 257 265 267 273 278 279 278 274 270
256 262 251 239 236 246 244 229 231 235 240 244 238 236 236 239 243 238 233 240 243 243 241 241 241 242 242 243 243 244 247 248 240 243 260 276 279 280 270 255 275 270 276
253 251 249 240 238 243 246 240 237 234 240 246 246 239 238 240 239 243 243 241 243 244 243 243 244 243 245 246 248 248 246 247 244 236 236 246 249 276 278 268 258 281 273
245 246 249 247 241 245 252 248 243 241 238 242 241 242 239 235 243 244 246 247 245 244 244 245 244 244 245 247 249 250 249 248 248 248 241 243 250 268 284 287 275 272 274
248 252 255 253 255 257 251 253 250 248 245 243 243 242 243 246 249 249 246 245 250 251 247 246 246 245 245 248 249 250 249 250 251 251 255 256 259 253 258 274 276 279 279
259 254 254 258 253 251 253 246 249 251 253 252 244 242 245 244 244 245 246 246 248 253 252 248 247 246 245 247 248 250 250 251 253 255 254 256 255 256 254 261 269 278 284
21 3 338 305 278 276 264 255 254 254 255 252 248 242 244 244 247 248 247 247 247 248 252 251 248 247 245 246 247 250 251 253 253 254 256 257 259 262 264 264 269 275 280
72 66 41 44 26 321 288 279 264 254 255 251 249 246 245 245 247 248 249 250 250 251 253 255 255 253 250 247 248 250 253 254 255 256 256 257 258 259 259 256 260 268 275
73 35 37 22 14 11 12 3 300 275 259 254 248 245 245 244 247 250 249 249 251 251 251 253 255 253 251 249 248 248 251 253 254 256 257 258 261 261 263 262 265 268 268
25 19 16 13 11 3 1 4 3 318 274 264 258 251 246 246 248 250 248 251 251 248 249 250 251 253 250 249 247 247 249 250 253 254 256 258 258 259 261 261 262 263 265
27 12 3 359 359 350 346 341 342 350 333 273 256 253 249 249 251 250 252 250 249 250 248 249 251 251 250 248 247 247 248 249 251 255 258 258 256 257 257 258 261 261 264
13 357 351 338 337 342 341 337 335 335 339 325 281 265 261 254 250 252 253 254 248 244 246 248 250 251 250 249 246 245 246 248 251 253 248 257 257 255 259 260 259 256 259
351 341 342 340 338 340 337 336 337 335 329 321 316 294 284 268 258 257 255 253 250 246 244 244 248 248 247 246 244 244 246 250 253 253 254 255 255 255 260 261 259 257 257
337 332 332 334 337 338 342 339 336 337 333 321 308 309 301 285 277 268 261 256 251 247 243 238 238 242 244 243 245 244 250 250 253 252 251 252 253 257 257 260 251 257 260
326 320 323 331 335 342 340 336 333 330 330 324 317 307 304 299 284 276 268 260 249 243 242 241 239 242 243 244 245 246 248 249 250 250 251 252 253 256 260 255 259 260 260
314 317 323 334 347 340 336 331 332 330 325 322 321 317 310 302 294 280 268 257 251 248 245 244 244 244 247 248 249 246 246 245 246 248 249 254 252 250 249 253 254 255 256
330 355 359 347 344 341 337 338 330 329 324 319 316 314 313 307 297 288 274 259 253 250 247 246 246 247 248 247 247 243 241 242 244 246 244 246 246 247 246 249 251 252 248
1 351 341 337 335 335 334 331 326 323 324 322 313 308 308 305 302 291 282 271 257 249 247 245 244 245 246 244 244 241 240 242 242 243 241 240 242 247 246 247 247 243 241
341 337 335 334 334 335 330 326 326 326 320 320 323 311 301 300 295 289 284 277 265 255 249 246 244 243 244 243 242 239 237 236 236 236 236 239 241 240 242 238 236 235 233
334 331 329 329 329 330 327 321 322 325 328 320 318 318 303 292 294 290 280 275 267 260 252 248 246 246 246 246 245 242 239 238 238 237 236 234 235 235 229 228 229 231 230
322 324 322 323 322 324 323 316 315 317 321 319 313 312 313 298 286 287 282 269 265 259 255 251 249 247 245 243 241 241 242 239 238 234 233 231 226 224 223 220 222 230 230
319 319 318 317 319 320 320 315 313 312 311 313 311 307 307 307 290 283 279 274 263 257 253 250 247 246 244 241 239 237 235 234 234 235 229 224 218 220 220 216 219 221 222
316 317 315 314 314 316 316 312 314 312 307 305 307 306 302 301 297 285 278 272 262 255 252 249 247 245 242 238 235 232 229 229 227 223 221 218 217 214 212 212 215 217 214
315 312 311 310 309 310 309 309 310 310 306 302 301 302 300 298 296 287 278 269 263 255 252 250 247 247 241 236 232 228 225 223 217 213 212 213 215 213 212 211 213 213 210
311 312 309 309 306 306 304 304 307 308 304 300 299 297 296 294 291 289 282 273 266 260 254 252 251 246 245 241 236 230 225 220 213 210 208 209 208 208 207 205 205 204 203
314 314 313 306 305 304 303 302 303 304 300 298 296 295 296 292 287 285 284 278 270 260 255 253 250 251 250 247 243 234 228 222 214 208 209 209 209 206 205 202 200 200 200